Flag for U.S.A. Weather past 2 weeks in Moreno Valley, California, U.S.A.

Now
70 °F

Sunny.


Feels Like: 77 °F
Forecast: 45 / 73 °F
Wind: No wind

Location: Riverside / March Air Force Base

Current Time: Dec 22, 2014 at 1:33:26 PM

Latest Report: Dec 22, 2014 at 12:58 PM


Visibility: 10 mi

Pressure: 29.99 "Hg

Humidity: 44%

Dew point: 47 °F

Location of Moreno ValleyLocation

Historic Weather in Moreno Valley — Graph

°F

Moreno Valley temperature yesterday

Maximum temperature yesterday: 64 °F (at 2:58 PM)
Minimum temperature yesterday: 40 °F (at 6:58 AM)
Average temperature yesterday: 50 °F

Past Weeks' High & Low Weather Summary

 TemperatureHumidityPressure
High75 °F (Dec 8, 12:58 PM)100% (Dec 8, 6:58 AM)30.26 "Hg (Dec 8, 6:58 AM)
Low38 °F (Dec 14, 6:58 AM)28% (Dec 9, 2:58 PM)29.86 "Hg (Dec 12, 4:58 AM)
Average52 °F85%30.07 "Hg
* Reported Dec 7 11:58 AM — Dec 22 11:58 AM, Moreno Valley, Weather by CustomWeather, © 2014

Note: Actual official high and low records may vary slightly from our data, if they occured in-between our weather recording intervals... More about our weather records

Advertising

Moreno Valley weather history for previous 24 hours

 ConditionsComfort  
Time TempWeatherWind HumidityBarometerVisibility
11:58 AM
Dec 22
67 °FSunny.1 mph53%30.02 "Hg10 mi
10:58 AM63 °FSunny.2 mph64%30.05 "Hg10 mi
6:58 AM40 °FSunny.2 mph100%30.06 "Hg10 mi
5:58 AM41 °FPassing clouds.2 mph100%30.06 "Hg10 mi
4:58 AM42 °FClear.No wind100%30.05 "Hg10 mi
3:58 AM42 °FClear.3 mph100%30.05 "Hg10 mi
2:58 AM43 °FClear.No wind100%30.04 "Hg10 mi
1:58 AM43 °FPassing clouds.1 mph100%30.05 "Hg10 mi
12:58 AM44 °FPassing clouds.No wind100%30.05 "Hg10 mi
11:58 PM
Dec 21
46 °FPassing clouds.1 mph100%30.06 "Hg10 mi
10:58 PM48 °FClear.No wind100%30.08 "Hg9 mi
9:58 PM51 °FClear.1 mph98%30.08 "Hg10 mi
8:58 PM53 °FClear.3 mph91%30.07 "Hg10 mi
7:58 PM53 °FClear.2 mph91%30.07 "Hg10 mi
6:58 PM52 °FClear.1 mph95%30.09 "Hg10 mi
5:58 PM54 °FClear.No wind89%30.06 "Hg10 mi
4:58 PM57 °FClear.5 mph83%30.06 "Hg10 mi
3:58 PM62 °FSunny.5 mph74%30.06 "Hg10 mi
2:58 PM64 °FSunny.6 mph61%30.04 "Hg10 mi
1:58 PM64 °FSunny.3 mph65%30.04 "Hg10 mi
Weather by CustomWeather, © 2014

See weather overviewHow to use our weather pages